Time,TemperatureF,DewpointF,PressureIn,WindDirection,WindDirectionDegrees,WindSpeedMPH,WindSpeedGustMPH,Humidity,HourlyPrecipIn,Conditions,Clouds,dailyrainin,SolarRadiationWatts/m^2,SoftwareType,DateUTC
2013-04-25 00:21:00,41.0,16.0,-100.00,ENE,76,5.0,7.0,36,0.00,,,0.00,1.000000,,2013-04-25 07:21:00,
2013-04-25 00:31:00,41.0,16.0,-100.00,ENE,76,5.0,7.0,36,0.00,,,0.00,1.000000,,2013-04-25 07:31:00,
2013-04-25 00:42:00,41.0,16.0,-100.00,ENE,76,5.0,7.0,36,0.00,,,0.00,1.000000,,2013-04-25 07:42:00,
2013-04-25 00:52:00,41.0,16.0,-100.00,ENE,76,5.0,7.0,36,0.00,,,0.00,1.000000,,2013-04-25 07:52:00,
2013-04-25 01:21:00,40.0,16.0,-100.00,East,79,5.0,7.0,38,0.00,,,0.00,1.000000,,2013-04-25 08:21:00,
2013-04-25 01:31:00,40.0,16.0,-100.00,East,79,5.0,7.0,38,0.00,,,0.00,1.000000,,2013-04-25 08:31:00,
2013-04-25 01:41:00,40.0,16.0,-100.00,East,79,5.0,7.0,38,0.00,,,0.00,1.000000,,2013-04-25 08:41:00,
2013-04-25 01:51:00,40.0,16.0,-100.00,East,79,5.0,7.0,38,0.00,,,0.00,1.000000,,2013-04-25 08:51:00,
2013-04-25 02:21:00,37.0,17.0,-100.00,ENE,74,5.0,7.0,44,0.00,,,0.00,1.000000,,2013-04-25 09:21:00,
2013-04-25 02:33:00,37.0,17.0,-100.00,ENE,74,5.0,7.0,44,0.00,,,0.00,1.000000,,2013-04-25 09:33:00,
2013-04-25 02:42:00,37.0,17.0,-100.00,ENE,74,5.0,7.0,44,0.00,,,0.00,1.000000,,2013-04-25 09:42:00,
2013-04-25 02:52:00,37.0,17.0,-100.00,ENE,74,5.0,7.0,44,0.00,,,0.00,1.000000,,2013-04-25 09:52:00,
2013-04-25 03:22:00,35.0,16.0,-100.00,ENE,61,7.0,9.0,45,0.00,,,0.00,1.000000,,2013-04-25 10:22:00,
2013-04-25 03:32:00,35.0,16.0,-100.00,ENE,61,7.0,9.0,45,0.00,,,0.00,1.000000,,2013-04-25 10:32:00,
2013-04-25 03:42:00,35.0,16.0,-100.00,ENE,61,7.0,9.0,45,0.00,,,0.00,1.000000,,2013-04-25 10:42:00,
2013-04-25 03:52:00,35.0,16.0,-100.00,ENE,61,7.0,9.0,45,0.00,,,0.00,1.000000,,2013-04-25 10:52:00,
2013-04-25 04:22:00,33.0,17.0,-100.00,ENE,74,6.0,10.0,51,0.00,,,0.00,1.000000,,2013-04-25 11:22:00,
2013-04-25 04:32:00,33.0,17.0,-100.00,ENE,74,6.0,10.0,51,0.00,,,0.00,1.000000,,2013-04-25 11:32:00,
2013-04-25 04:42:00,33.0,17.0,-100.00,ENE,74,6.0,10.0,51,0.00,,,0.00,1.000000,,2013-04-25 11:42:00,
2013-04-25 04:51:00,33.0,17.0,-100.00,ENE,74,6.0,10.0,51,0.00,,,0.00,1.000000,,2013-04-25 11:51:00,
2013-04-25 05:21:00,31.0,17.0,-100.00,ENE,65,7.0,9.0,56,0.00,,,0.00,1.000000,,2013-04-25 12:21:00,
2013-04-25 05:31:00,31.0,17.0,-100.00,ENE,65,7.0,9.0,56,0.00,,,0.00,1.000000,,2013-04-25 12:31:00,
2013-04-25 05:41:00,31.0,17.0,-100.00,ENE,65,7.0,9.0,56,0.00,,,0.00,1.000000,,2013-04-25 12:41:00,
2013-04-25 05:51:00,31.0,17.0,-100.00,ENE,65,7.0,9.0,56,0.00,,,0.00,1.000000,,2013-04-25 12:51:00,
2013-04-25 06:21:00,30.0,17.0,-100.00,ENE,75,7.0,9.0,57,0.00,,,-99.99,1.000000,,2013-04-25 13:21:00,
2013-04-25 06:31:00,30.0,17.0,-100.00,ENE,75,7.0,9.0,57,0.00,,,-99.99,1.000000,,2013-04-25 13:31:00,
2013-04-25 06:42:00,30.0,17.0,-100.00,ENE,75,7.0,9.0,57,0.00,,,-99.99,1.000000,,2013-04-25 13:42:00,
2013-04-25 06:52:00,30.0,17.0,-100.00,ENE,75,7.0,9.0,57,0.00,,,-99.99,1.000000,,2013-04-25 13:52:00,
2013-04-25 07:21:00,29.0,18.0,-100.00,ENE,69,8.0,11.0,63,0.00,,,0.00,17.000000,,2013-04-25 14:21:00,
2013-04-25 07:32:00,29.0,18.0,-100.00,ENE,69,8.0,11.0,63,0.00,,,0.00,17.000000,,2013-04-25 14:32:00,
2013-04-25 07:42:00,29.0,18.0,-100.00,ENE,69,8.0,11.0,63,0.00,,,0.00,17.000000,,2013-04-25 14:42:00,
2013-04-25 07:51:00,29.0,18.0,-100.00,ENE,69,8.0,11.0,63,0.00,,,0.00,17.000000,,2013-04-25 14:51:00,
2013-04-25 08:21:00,36.0,21.0,-100.00,ENE,73,7.0,10.0,53,0.00,,,0.00,140.000000,,2013-04-25 15:21:00,
2013-04-25 08:33:00,36.0,21.0,-100.00,ENE,73,7.0,10.0,53,0.00,,,0.00,140.000000,,2013-04-25 15:33:00,
2013-04-25 08:42:00,36.0,21.0,-100.00,ENE,73,7.0,10.0,53,0.00,,,0.00,140.000000,,2013-04-25 15:42:00,
2013-04-25 08:52:00,36.0,21.0,-100.00,ENE,73,7.0,10.0,53,0.00,,,0.00,140.000000,,2013-04-25 15:52:00,
2013-04-25 09:24:00,45.0,22.0,-100.00,ENE,57,5.0,9.0,40,0.00,,,0.00,385.000000,,2013-04-25 16:24:00,
2013-04-25 09:32:00,45.0,22.0,-100.00,ENE,57,5.0,9.0,40,0.00,,,0.00,385.000000,,2013-04-25 16:32:00,
2013-04-25 09:42:00,45.0,22.0,-100.00,ENE,57,5.0,9.0,40,0.00,,,0.00,385.000000,,2013-04-25 16:42:00,
2013-04-25 09:52:00,45.0,22.0,-100.00,ENE,57,5.0,9.0,40,0.00,,,0.00,385.000000,,2013-04-25 16:52:00,
2013-04-25 10:22:00,55.0,23.0,-100.00,East,99,2.0,7.0,29,0.00,,,0.00,585.000000,,2013-04-25 17:22:00,
2013-04-25 10:32:00,55.0,23.0,-100.00,East,99,2.0,7.0,29,0.00,,,0.00,585.000000,,2013-04-25 17:32:00,
2013-04-25 10:42:00,55.0,23.0,-100.00,East,99,2.0,7.0,29,0.00,,,0.00,585.000000,,2013-04-25 17:42:00,
2013-04-25 10:53:00,55.0,23.0,-100.00,East,99,2.0,7.0,29,0.00,,,0.00,585.000000,,2013-04-25 17:53:00,
2013-04-25 11:21:00,62.0,29.0,-100.00,SW,231,4.0,7.0,28,0.00,,,0.00,751.000000,,2013-04-25 18:21:00,
2013-04-25 11:32:00,62.0,29.0,-100.00,SW,231,4.0,7.0,28,0.00,,,0.00,751.000000,,2013-04-25 18:32:00,
2013-04-25 11:42:00,62.0,29.0,-100.00,SW,231,4.0,7.0,28,0.00,,,0.00,751.000000,,2013-04-25 18:42:00,
2013-04-25 11:52:00,62.0,29.0,-100.00,SW,231,4.0,7.0,28,0.00,,,0.00,751.000000,,2013-04-25 18:52:00,
2013-04-25 12:21:00,65.0,28.0,-100.00,WSW,238,6.0,10.0,25,0.00,,,0.00,882.000000,,2013-04-25 19:21:00,
2013-04-25 12:31:00,65.0,28.0,-100.00,WSW,238,6.0,10.0,25,0.00,,,0.00,882.000000,,2013-04-25 19:31:00,
2013-04-25 12:41:00,65.0,28.0,-100.00,WSW,238,6.0,10.0,25,0.00,,,0.00,882.000000,,2013-04-25 19:41:00,
2013-04-25 12:52:00,65.0,28.0,-100.00,WSW,238,6.0,10.0,25,0.00,,,0.00,882.000000,,2013-04-25 19:52:00,
2013-04-25 13:22:00,67.0,21.0,-100.00,WSW,256,7.0,12.0,17,0.00,,,0.00,955.000000,,2013-04-25 20:22:00,
2013-04-25 13:32:00,67.0,21.0,-100.00,WSW,256,7.0,12.0,17,0.00,,,0.00,955.000000,,2013-04-25 20:32:00,
2013-04-25 13:42:00,67.0,21.0,-100.00,WSW,256,7.0,12.0,17,0.00,,,0.00,955.000000,,2013-04-25 20:42:00,
2013-04-25 13:51:00,67.0,21.0,-100.00,WSW,256,7.0,12.0,17,0.00,,,0.00,955.000000,,2013-04-25 20:51:00,
2013-04-25 14:21:00,70.0,19.0,-100.00,WSW,241,7.0,13.0,14,0.00,,,0.00,955.000000,,2013-04-25 21:21:00,
2013-04-25 14:33:00,70.0,19.0,-100.00,WSW,241,7.0,13.0,14,0.00,,,0.00,955.000000,,2013-04-25 21:33:00,
2013-04-25 14:42:00,70.0,19.0,-100.00,WSW,241,7.0,13.0,14,0.00,,,0.00,955.000000,,2013-04-25 21:42:00,
2013-04-25 14:52:00,70.0,19.0,-100.00,WSW,241,7.0,13.0,14,0.00,,,0.00,955.000000,,2013-04-25 21:52:00,
2013-04-25 15:22:00,72.0,20.0,-100.00,WSW,244,9.0,18.0,14,0.00,,,0.00,920.000000,,2013-04-25 22:22:00,
2013-04-25 15:32:00,72.0,20.0,-100.00,WSW,244,9.0,18.0,14,0.00,,,0.00,920.000000,,2013-04-25 22:32:00,
2013-04-25 15:42:00,72.0,20.0,-100.00,WSW,244,9.0,18.0,14,0.00,,,0.00,920.000000,,2013-04-25 22:42:00,
2013-04-25 15:52:00,72.0,20.0,-100.00,WSW,244,9.0,18.0,14,0.00,,,0.00,920.000000,,2013-04-25 22:52:00,
2013-04-25 16:22:00,71.0,28.0,-100.00,West,279,14.0,22.0,20,0.00,,,0.00,660.000000,,2013-04-25 23:22:00,
2013-04-25 16:32:00,71.0,28.0,-100.00,West,279,14.0,22.0,20,0.00,,,0.00,660.000000,,2013-04-25 23:32:00,
2013-04-25 16:41:00,71.0,28.0,-100.00,West,279,14.0,22.0,20,0.00,,,0.00,660.000000,,2013-04-25 23:41:00,
2013-04-25 16:52:00,71.0,28.0,-100.00,West,279,14.0,22.0,20,0.00,,,0.00,660.000000,,2013-04-25 23:52:00,
2013-04-25 17:21:00,71.0,30.0,-100.00,WNW,295,14.0,25.0,22,0.00,,,0.00,650.000000,,2013-04-26 00:21:00,
2013-04-25 17:31:00,71.0,30.0,-100.00,WNW,295,14.0,25.0,22,0.00,,,0.00,650.000000,,2013-04-26 00:31:00,
2013-04-25 17:41:00,71.0,30.0,-100.00,WNW,295,14.0,25.0,22,0.00,,,0.00,650.000000,,2013-04-26 00:41:00,
2013-04-25 17:51:00,71.0,30.0,-100.00,WNW,295,14.0,25.0,22,0.00,,,0.00,650.000000,,2013-04-26 00:51:00,
2013-04-25 18:21:00,65.0,37.0,-100.00,West,271,14.0,24.0,35,0.00,,,-99.99,293.000000,,2013-04-26 01:21:00,
2013-04-25 18:31:00,65.0,37.0,-100.00,West,271,14.0,24.0,35,0.00,,,-99.99,293.000000,,2013-04-26 01:31:00,
2013-04-25 18:41:00,65.0,37.0,-100.00,West,271,14.0,24.0,35,0.00,,,-99.99,293.000000,,2013-04-26 01:41:00,
2013-04-25 18:52:00,65.0,37.0,-100.00,West,271,14.0,24.0,35,0.00,,,-99.99,293.000000,,2013-04-26 01:52:00,
2013-04-25 19:21:00,62.0,39.0,-100.00,WNW,285,9.0,20.0,43,0.00,,,0.00,121.000000,,2013-04-26 02:21:00,
2013-04-25 19:32:00,62.0,39.0,-100.00,WNW,285,9.0,20.0,43,0.00,,,0.00,121.000000,,2013-04-26 02:32:00,
2013-04-25 19:42:00,62.0,39.0,-100.00,WNW,285,9.0,20.0,43,0.00,,,0.00,121.000000,,2013-04-26 02:42:00,
2013-04-25 19:51:00,62.0,39.0,-100.00,WNW,285,9.0,20.0,43,0.00,,,0.00,121.000000,,2013-04-26 02:51:00,
2013-04-25 20:21:00,58.0,40.0,-100.00,WNW,298,9.0,13.0,52,0.00,,,0.00,39.000000,,2013-04-26 03:21:00,
2013-04-25 20:33:00,58.0,40.0,-100.00,WNW,298,9.0,13.0,52,0.00,,,0.00,39.000000,,2013-04-26 03:33:00,
2013-04-25 20:43:00,58.0,40.0,-100.00,WNW,298,9.0,13.0,52,0.00,,,0.00,39.000000,,2013-04-26 03:43:00,
2013-04-25 20:52:00,58.0,40.0,-100.00,WNW,298,9.0,13.0,52,0.00,,,0.00,39.000000,,2013-04-26 03:52:00,
2013-04-25 21:22:00,55.0,37.0,-100.00,NW,326,7.0,11.0,50,0.00,,,0.00,2.000000,,2013-04-26 04:22:00,
2013-04-25 21:32:00,55.0,37.0,-100.00,NW,326,7.0,11.0,50,0.00,,,0.00,2.000000,,2013-04-26 04:32:00,
2013-04-25 21:43:00,55.0,37.0,-100.00,NW,326,7.0,11.0,50,0.00,,,0.00,2.000000,,2013-04-26 04:43:00,
2013-04-25 21:52:00,55.0,37.0,-100.00,NW,326,7.0,11.0,50,0.00,,,0.00,2.000000,,2013-04-26 04:52:00,
2013-04-25 22:22:00,54.0,34.0,-100.00,North,1,5.0,12.0,46,0.00,,,0.00,1.000000,,2013-04-26 05:22:00,
2013-04-25 22:32:00,54.0,34.0,-100.00,North,1,5.0,12.0,46,0.00,,,0.00,1.000000,,2013-04-26 05:32:00,
2013-04-25 22:42:00,54.0,34.0,-100.00,North,1,5.0,12.0,46,0.00,,,0.00,1.000000,,2013-04-26 05:42:00,
2013-04-25 22:52:00,54.0,34.0,-100.00,North,1,5.0,12.0,46,0.00,,,0.00,1.000000,,2013-04-26 05:52:00,
2013-04-25 23:21:00,50.0,34.0,-100.00,ENE,60,3.0,8.0,55,0.00,,,0.00,1.000000,,2013-04-26 06:21:00,
2013-04-25 23:32:00,50.0,34.0,-100.00,ENE,60,3.0,8.0,55,0.00,,,0.00,1.000000,,2013-04-26 06:32:00,
2013-04-25 23:41:00,50.0,34.0,-100.00,ENE,60,3.0,8.0,55,0.00,,,0.00,1.000000,,2013-04-26 06:41:00,
2013-04-25 23:51:00,50.0,34.0,-100.00,ENE,60,3.0,8.0,55,0.00,,,0.00,1.000000,,2013-04-26 06:51:00,